sat.trackr.live / text

‹ back to catalog

STARLINK-36611

NORAD 67830 · 2026-033K

PAYLOAD ACTIVE UNKNOWN

§ Identity

Operator
Country
US
Launch date
2026-02-16
Launch site
AFETR
Launch vehicle
Mass (kg)
RCS (m²)

Purposes: comms

External: N2YO · Heavens-Above · Gunter

§ Orbital elements

Epoch: 2026-05-24T13:41:57.358464Z

Period
94.27 min
Inclination
43.0006°
Eccentricity
0.0001332
Mean motion
15.27581374 rev/d
Perigee alt
482.1 km
Apogee alt
484.0 km
Semi-major
6,861.2 km
B*
1.6156e-4
RAAN
198.9847°
Arg perigee
269.7997°
Mean anomaly
90.2702°
Rev number
1,627

§ Raw data

STARLINK-366111 67830U 26033K   26144.57080276  .00004186  00000+0  16156-3 0  99902 67830  43.0006 198.9847 0001332 269.7997  90.2702 15.27581374 16272

JSON: /api/v1/satellites/67830 · /tle

For live sub-satellite position, see the globe view (requires WebGL).

§ Visibility from observer

Set your observer location to see the next 7 days of passes ≥ 10°. The values pass through the URL so the page stays shareable.

No JS? Fill the form by hand. The geolocation button needs JavaScript.